CW5757 Weather Reports


Display with metric or nautical units.
time (UTC)temp
F
wind
direction
speed
MPH
gust
MPH
rain 1hr
in
rain 24hr
in
rain mn
in
humidity
%
barometer
mb
20210127024125 59 180 0.0 0.0 0.00 0.73 0.00 70 1013.6
20210127023630 60 180 0.0 0.0 0.00 0.73 0.00 69 1013.7
20210127023125 60 180 0.0 0.0 0.00 0.73 0.00 69 1013.8
20210127022627 60 180 0.0 0.0 0.00 0.73 0.00 69 1013.8
20210127021627 60 180 0.0 0.0 0.00 0.73 0.00 68 1013.5
20210127021126 60 180 0.0 0.0 0.00 0.73 0.00 69 1013.6
20210127020626 60 180 0.0 0.0 0.00 0.73 0.00 69 1013.7
20210127020128 60 180 0.0 0.0 0.00 0.73 0.00 68 1013.6
20210127015628 60 180 0.0 0.0 0.00 0.73 0.00 69 1013.4
20210127015127 60 180 0.0 0.0 0.00 0.73 0.00 69 1013.4
20210127014631 61 180 0.0 0.0 0.00 0.73 0.00 68 1013.6
20210127014126 61 180 0.0 0.0 0.00 0.73 0.00 68 1013.3
20210127013625 61 180 0.0 0.0 0.00 0.73 0.00 67 1013.3
20210127013125 61 180 0.0 0.0 0.00 0.73 0.00 67 1013.3
20210127012625 61 180 0.0 0.0 0.00 0.73 0.00 67 1013.1
20210127012127 62 180 0.0 0.0 0.00 0.73 0.00 66 1013.1
20210127011635 62 180 0.0 0.0 0.00 0.73 0.00 66 1013.2
20210127011126 62 180 0.0 0.0 0.00 0.73 0.00 66 1013.2
20210127010625 62 180 0.0 0.0 0.00 0.73 0.00 64 1013.3
20210127010126 63 180 0.0 0.0 0.00 0.73 0.00 64 1013.2
20210127005125 63 180 0.0 0.0 0.00 0.73 0.00 63 1013.1
20210127004626 63 180 0.0 0.0 0.00 0.73 0.00 63 1013.1
20210127004131 63 180 0.0 0.0 0.00 0.73 0.00 63 1013.0
20210127003625 64 180 0.0 0.0 0.00 0.73 0.00 62 1013.1
20210127002125 64 180 0.0 0.0 0.00 0.73 0.00 61 1013.0
20210127001132 64 180 0.0 0.0 0.00 0.73 0.00 59 1012.8
20210127000632 65 180 0.0 0.0 0.00 0.73 0.00 58 1012.9
20210127000132 65 180 0.0 0.0 0.00 0.73 0.73 59 1012.8
20210126235633 65 180 0.0 0.0 0.00 0.73 0.73 58 1012.8
20210126235132 65 180 0.0 0.0 0.00 0.73 0.73 58 1012.8
20210126234643 65 180 0.0 0.0 0.00 0.73 0.73 58 1012.7
20210126234131 65 180 0.0 0.0 0.00 0.73 0.73 57 1012.6
20210126233632 65 180 0.0 0.0 0.00 0.73 0.73 57 1012.6
20210126233134 65 180 0.0 0.0 0.00 0.73 0.73 56 1012.4
20210126232131 66 180 0.0 0.0 0.00 0.73 0.73 57 1012.4
20210126231632 66 180 0.0 0.0 0.00 0.73 0.73 56 1012.3
20210126231131 66 180 0.0 0.0 0.00 0.73 0.73 55 1012.3
20210126230633 66 180 0.0 0.0 0.00 0.73 0.73 57 1012.4
20210126230131 67 180 0.0 0.0 0.00 0.73 0.73 55 1012.2
20210126225636 67 180 0.0 0.0 0.00 0.73 0.73 56 1012.2
20210126224634 67 180 0.0 0.0 0.00 0.73 0.73 56 1012.0
20210126224132 67 180 0.0 0.0 0.00 0.73 0.73 54 1012.0
20210126223131 68 180 0.0 0.0 0.00 0.73 0.73 54 1012.0
20210126222632 68 180 0.0 0.0 0.00 0.73 0.73 53 1011.9
20210126222135 68 180 0.0 0.0 0.00 0.73 0.73 53 1011.8
20210126221632 68 180 0.0 0.0 0.00 0.73 0.73 52 1011.8
20210126221132 68 180 0.0 0.0 0.00 0.73 0.73 52 1011.9
20210126220631 69 180 0.0 0.0 0.00 0.73 0.73 52 1011.8
20210126220136 69 180 0.0 0.0 0.00 0.73 0.73 53 1011.9
20210126215535 69 180 0.0 0.0 0.00 0.73 0.73 52 1011.9
20210126215033 69 180 0.0 0.0 0.00 0.73 0.73 52 1011.6
20210126214550 69 180 0.0 0.0 0.00 0.73 0.73 52 1011.6
20210126214033 69 180 0.0 0.0 0.00 0.73 0.73 51 1011.6
20210126213533 70 180 0.0 0.0 0.00 0.73 0.73 53 1011.6
20210126213033 70 180 0.0 0.0 0.00 0.73 0.73 55 1011.4
20210126212535 70 180 0.0 0.0 0.00 0.73 0.73 52 1011.4
20210126212038 70 180 0.0 0.0 0.00 0.73 0.73 52 1011.5
20210126211535 70 180 0.0 0.0 0.00 0.73 0.73 53 1011.1
20210126211038 70 180 0.0 0.0 0.00 0.73 0.73 56 1011.0
20210126210539 70 180 0.0 0.0 0.00 0.73 0.73 55 1011.1
20210126205532 70 180 0.0 0.0 0.00 0.73 0.73 53 1011.1
20210126205046 70 180 0.0 0.0 0.00 0.73 0.73 51 1011.1
20210126204543 70 180 0.0 0.0 0.00 0.73 0.73 51 1011.1
20210126204033 70 180 0.0 0.0 0.00 0.73 0.73 52 1011.1
20210126203539 70 180 0.0 0.0 0.00 0.73 0.73 52 1011.0
20210126203032 70 180 0.0 0.0 0.00 0.73 0.73 56 1011.0
20210126202532 70 180 0.0 0.0 0.00 0.73 0.73 56 1011.0
20210126202035 70 180 0.0 0.0 0.00 0.73 0.73 57 1011.1
20210126201544 70 180 0.0 0.0 0.00 0.73 0.73 56 1011.2
20210126201032 70 180 0.0 0.0 0.00 0.73 0.73 55 1011.1
20210126200103 70 180 0.0 0.0 0.00 0.73 0.73 56 1011.3
20210126195608 70 180 0.0 0.0 0.00 0.73 0.73 57 1011.2
20210126195101 70 180 0.0 0.0 0.00 0.73 0.73 58 1011.1
20210126194601 70 180 0.0 0.0 0.00 0.73 0.73 58 1011.1
20210126194104 70 180 0.0 0.0 0.00 0.73 0.73 60 1011.0
20210126193602 70 180 0.0 0.0 0.00 0.73 0.73 61 1011.0
20210126193108 70 180 0.0 0.0 0.00 0.73 0.73 62 1010.8
20210126192607 71 180 0.0 0.0 0.00 0.73 0.73 62 1010.8
20210126192101 71 180 0.0 0.0 0.00 0.73 0.73 62 1010.8
20210126191601 71 180 0.0 1.0 0.00 0.73 0.73 62 1010.8
20210126191101 71 180 0.0 9.0 0.00 0.73 0.73 61 1010.8
20210126190601 71 180 1.0 9.0 0.00 0.73 0.73 60 1010.8
20210126190101 72 170 0.0 0.0 0.00 0.73 0.73 61 1010.9
20210126185604 72 170 0.0 0.0 0.00 0.73 0.73 62 1011.0
20210126185101 72 170 0.0 0.0 0.00 0.73 0.73 62 1010.9
20210126184603 72 170 0.0 0.0 0.00 0.73 0.73 62 1010.9
20210126184104 72 170 0.0 0.0 0.00 0.73 0.73 64 1011.0
20210126183602 72 170 0.0 0.0 0.00 0.73 0.73 63 1011.0
20210126183101 71 170 0.0 0.0 0.00 0.73 0.73 65 1011.1
20210126182601 71 170 0.0 0.0 0.00 0.73 0.73 66 1011.1
20210126182103 71 170 0.0 0.0 0.00 0.73 0.73 68 1011.0
20210126181602 70 170 0.0 0.0 0.00 0.73 0.73 69 1011.1
20210126181102 70 170 0.0 0.0 0.00 0.73 0.73 68 1011.2
20210126180603 70 170 0.0 6.0 0.00 0.73 0.73 69 1011.5
20210126180104 69 170 1.0 6.0 0.00 0.73 0.73 70 1011.3
20210126175610 69 133 0.0 0.0 0.00 0.73 0.73 71 1011.3
20210126175102 69 133 0.0 0.0 0.00 0.73 0.73 75 1011.4
20210126174621 68 133 0.0 0.0 0.00 0.73 0.73 73 1011.3
20210126174105 68 133 0.0 0.0 0.00 0.73 0.73 76 1011.4
20210126173601 68 133 0.0 0.0 0.00 0.73 0.73 77 1011.6
20210126173103 68 133 0.0 1.0 0.00 0.73 0.73 77 1011.7
20210126172601 68 133 0.0 5.0 0.00 0.73 0.73 78 1011.8
20210126172101 67 133 1.0 5.0 0.00 0.73 0.73 78 1011.9
20210126171602 67 200 0.0 0.0 0.00 0.73 0.73 80 1012.0
20210126171101 67 200 0.0 0.0 0.00 0.73 0.73 82 1012.1
20210126170601 66 200 0.0 0.0 0.00 0.73 0.73 83 1012.4
20210126170102 66 200 0.0 0.0 0.00 0.73 0.73 86 1012.4
20210126165606 66 200 0.0 3.0 0.00 0.73 0.73 84 1012.5
20210126165104 66 200 0.0 5.0 0.00 0.73 0.73 86 1012.5
20210126164601 65 200 0.0 5.0 0.00 0.73 0.73 89 1012.6
20210126164102 65 200 0.0 5.0 0.00 0.73 0.73 90 1012.5
20210126163602 64 200 0.0 4.0 0.00 0.73 0.73 92 1012.6
20210126163103 64 200 0.0 4.0 0.00 0.73 0.73 93 1012.6
20210126162301 64 200 0.0 7.0 0.00 0.73 0.73 93 1012.8
20210126161758 63 200 0.0 7.0 0.00 0.73 0.73 93 1012.9
20210126161305 63 200 0.0 7.0 0.00 0.73 0.73 94 1013.0
20210126160804 63 200 0.0 5.0 0.00 0.73 0.73 93 1013.0
20210126160304 63 200 0.0 5.0 0.00 0.73 0.73 93 1012.9
20210126155758 63 200 0.0 0.0 0.00 0.73 0.73 94 1012.9
20210126155301 63 200 0.0 1.0 0.00 0.73 0.73 94 1012.6
20210126154800 63 200 0.0 1.0 0.00 0.73 0.73 94 1012.5
20210126154300 63 200 0.0 7.0 0.00 0.73 0.73 94 1012.3
20210126153807 63 200 0.0 7.0 0.00 0.73 0.73 94 1012.3
20210126153259 63 200 0.0 0.0 0.00 0.73 0.73 94 1012.1
20210126152759 62 200 0.0 0.0 0.00 0.73 0.73 94 1012.0
20210126151833 62 200 0.0 3.0 0.00 0.73 0.73 94 1011.9
20210126151332 62 200 0.0 2.0 0.00 0.73 0.73 94 1011.9
20210126150832 62 200 0.0 2.0 0.00 0.73 0.73 94 1011.7
20210126150332 62 200 0.0 2.0 0.00 0.73 0.73 94 1011.6
20210126145831 62 200 0.0 2.0 0.00 0.73 0.73 94 1011.6
20210126145331 62 200 0.0 0.0 0.00 0.73 0.73 94 1011.6
20210126144833 61 200 0.0 1.0 0.00 0.73 0.73 93 1011.5
20210126144331 61 200 0.0 2.0 0.00 0.73 0.73 94 1011.5
20210126143832 61 200 0.0 2.0 0.00 0.73 0.73 93 1011.5
20210126143336 60 200 0.0 0.0 0.00 0.73 0.73 93 1011.5
20210126142831 60 200 0.0 0.0 0.00 0.73 0.73 93 1011.4
20210126142336 60 200 0.0 0.0 0.00 0.73 0.73 93 1011.2
20210126141831 60 200 0.0 0.0 0.00 0.73 0.73 93 1011.1
20210126141339 60 200 0.0 0.0 0.00 0.73 0.73 93 1011.0
20210126140831 60 200 0.0 0.0 0.00 0.73 0.73 93 1011.0
20210126140332 60 200 0.0 0.0 0.00 0.73 0.73 93 1010.9
20210126135835 60 200 0.0 0.0 0.00 0.73 0.73 93 1011.0
20210126135331 60 200 0.0 0.0 0.00 0.73 0.73 93 1010.8
20210126134832 60 200 0.0 0.0 0.00 0.73 0.73 93 1010.7
20210126134333 60 200 0.0 0.0 0.00 0.73 0.73 93 1010.7
20210126133832 61 200 0.0 0.0 0.00 0.73 0.73 93 1010.6
20210126133331 61 200 0.0 0.0 0.00 0.73 0.73 93 1010.5
20210126132834 61 200 0.0 0.0 0.00 0.73 0.73 93 1010.5
20210126132334 61 200 0.0 0.0 0.00 0.73 0.73 93 1010.6
20210126131832 61 200 0.0 0.0 0.01 0.73 0.73 93 1010.7
20210126131331 61 200 0.0 0.0 0.02 0.73 0.73 93 1010.5
20210126130831 61 200 0.0 0.0 0.04 0.73 0.73 93 1010.4
20210126130331 61 200 0.0 0.0 0.05 0.73 0.73 93 1010.5
20210126125831 61 200 0.0 0.0 0.06 0.73 0.73 93 1010.4
20210126125331 61 200 0.0 0.0 0.07 0.73 0.73 93 1010.3
20210126124832 61 200 0.0 0.0 0.08 0.73 0.73 93 1009.9
20210126124334 61 200 0.0 0.0 0.08 0.73 0.73 93 1009.7
20210126123831 62 200 0.0 0.0 0.10 0.73 0.73 93 1009.7
20210126123348 62 200 0.0 0.0 0.11 0.73 0.73 93 1009.8
20210126122831 62 200 0.0 0.0 0.12 0.73 0.73 93 1009.9
20210126122332 62 200 0.0 0.0 0.12 0.73 0.73 93 1009.8
20210126121833 62 200 0.0 0.0 0.12 0.72 0.72 93 1009.5
20210126121332 62 200 0.0 0.0 0.12 0.71 0.71 93 1010.1
20210126120840 62 200 0.0 0.0 0.10 0.69 0.69 93 1010.1
20210126120333 62 200 0.0 0.0 0.09 0.68 0.68 94 1010.5
20210126115834 62 200 0.0 0.0 0.09 0.67 0.67 94 1010.3
20210126115255 62 200 0.0 0.0 0.09 0.66 0.66 94 1009.6
20210126114801 61 200 0.0 0.0 0.08 0.65 0.65 94 1009.7
20210126114256 61 200 0.0 0.0 0.08 0.65 0.65 93 1009.9
20210126113755 61 200 0.0 3.0 0.06 0.63 0.63 93 1010.1
20210126113307 61 200 0.0 3.0 0.05 0.62 0.62 94 1009.3
20210126112800 61 200 0.0 0.0 0.05 0.61 0.61 93 1009.2
20210126112256 61 200 0.0 0.0 0.05 0.61 0.61 93 1009.2
20210126111754 60 200 0.0 0.0 0.04 0.60 0.60 93 1009.3
20210126111254 60 200 0.0 0.0 0.04 0.59 0.59 93 1009.3
20210126110800 60 200 0.0 0.0 0.09 0.59 0.59 93 1009.1
20210126110255 60 200 0.0 0.0 0.12 0.59 0.59 93 1009.2
20210126105811 60 200 0.0 0.0 0.14 0.58 0.58 93 1008.9
20210126105256 60 200 0.0 0.0 0.15 0.57 0.57 93 1009.3
20210126104757 60 200 0.0 0.0 0.16 0.57 0.57 94 1009.4
20210126104254 60 200 0.0 0.0 0.17 0.57 0.57 94 1008.8
20210126103825 60 200 0.0 0.0 0.18 0.57 0.57 93 1008.5
20210126103306 60 200 0.0 0.0 0.20 0.57 0.57 93 1008.5
20210126102819 59 200 0.0 0.0 0.27 0.56 0.56 93 1009.1
20210126102307 59 200 0.0 0.0 0.36 0.56 0.56 93 1009.4
20210126101754 59 200 0.0 3.0 0.48 0.56 0.56 93 1008.9
20210126101255 59 200 0.0 3.0 0.55 0.55 0.55 93 1008.5
20210126100759 58 200 0.0 2.0 0.50 0.50 0.50 93 1008.7
20210126100254 58 200 0.0 0.0 0.47 0.47 0.47 93 1009.1
20210126095755 59 200 0.0 0.0 0.44 0.44 0.44 93 1008.8
20210126095255 59 200 0.0 0.0 0.42 0.42 0.42 93 1008.6
20210126094758 58 200 0.0 0.0 0.41 0.41 0.41 94 1008.7
20210126094255 58 200 0.0 0.0 0.40 0.40 0.40 93 1008.7
20210126093755 57 200 0.0 0.0 0.39 0.39 0.39 93 1008.7
20210126092933 57 200 0.0 2.0 0.34 0.34 0.34 93 1008.9
20210126092432 56 200 0.0 12.0 0.21 0.21 0.21 93 1009.5
20210126091933 55 200 0.0 12.0 0.13 0.13 0.13 93 1009.3
20210126091432 53 200 0.0 0.0 0.04 0.04 0.04 93 1007.7
20210126090932 53 200 0.0 0.0 0.00 0.00 0.00 93 1007.5
20210126090434 53 200 0.0 0.0 0.00 0.00 0.00 93 1007.7
20210126085934 53 200 0.0 0.0 0.00 0.00 0.00 93 1007.7
20210126085436 53 200 0.0 0.0 0.00 0.00 0.00 93 1007.9
20210126084932 53 200 0.0 0.0 0.00 0.00 0.00 93 1008.3
20210126084432 53 200 0.0 0.0 0.00 0.00 0.00 93 1008.3
20210126083932 52 200 0.0 0.0 0.00 0.00 0.00 93 1008.2
20210126083433 52 200 0.0 0.0 0.00 0.00 0.00 93 1008.5
20210126082932 51 200 0.0 0.0 0.00 0.00 0.00 93 1008.7
20210126082432 51 200 0.0 0.0 0.00 0.00 0.00 92 1008.7
20210126081932 51 200 0.0 0.0 0.00 0.00 0.00 92 1008.9
20210126081437 51 200 0.0 0.0 0.00 0.00 0.00 92 1008.7
20210126080933 51 200 0.0 0.0 0.00 0.00 0.00 92 1008.5
20210126080437 51 200 0.0 0.0 0.00 0.00 0.00 92 1008.6
20210126075920 51 200 0.0 0.0 0.00 0.00 0.00 92 1008.8
20210126075422 51 200 0.0 0.0 0.00 0.00 0.00 92 1009.1
20210126074919 51 200 0.0 0.0 0.00 0.00 0.00 92 1008.9
20210126074421 51 200 0.0 0.0 0.00 0.00 0.00 92 1009.0
20210126073920 51 200 0.0 0.0 0.00 0.00 0.00 92 1009.0
20210126073421 51 200 0.0 0.0 0.00 0.00 0.00 92 1009.1
20210126072919 51 200 0.0 0.0 0.00 0.00 0.00 92 1009.1
20210126072420 51 200 0.0 0.0 0.00 0.00 0.00 92 1009.0
20210126071919 51 200 0.0 0.0 0.00 0.00 0.00 92 1009.0
20210126071421 51 200 0.0 0.0 0.00 0.00 0.00 92 1008.9
20210126070920 51 200 0.0 0.0 0.00 0.00 0.00 92 1008.9
20210126070420 51 200 0.0 0.0 0.00 0.00 0.00 92 1008.9
20210126065919 51 200 0.0 0.0 0.00 0.00 0.00 92 1009.0
20210126065423 51 200 0.0 0.0 0.00 0.00 0.00 92 1009.0
20210126064921 51 200 0.0 0.0 0.00 0.00 0.00 92 1008.9
20210126064420 51 200 0.0 0.0 0.00 0.00 0.00 92 1008.9
20210126063923 51 200 0.0 0.0 0.00 0.00 0.00 92 1008.9
20210126063419 51 200 0.0 0.0 0.00 0.00 0.00 92 1008.9
20210126062919 50 200 0.0 0.0 0.00 0.00 0.00 92 1008.8
20210126062422 50 200 0.0 0.0 0.00 0.00 0.00 92 1008.9
20210126061919 50 200 0.0 0.0 0.00 0.00 0.00 92 1008.8
20210126061419 50 200 0.0 0.0 0.00 0.00 0.00 92 1009.0
20210126060919 50 200 0.0 0.0 0.00 0.00 0.00 92 1008.9
20210126060335 50 200 0.0 0.0 0.00 0.00 0.00 92 1008.9
20210126055833 50 200 0.0 0.0 0.00 0.00 0.00 92 1009.0
20210126055335 50 200 0.0 0.0 0.00 0.00 0.00 92 1009.1
20210126054835 50 200 0.0 0.0 0.00 0.00 0.00 92 1009.1
20210126054332 50 200 0.0 0.0 0.00 0.00 0.00 92 1009.1
20210126053457 50 200 0.0 0.0 0.00 0.00 0.00 92 1009.3
20210126052957 50 200 0.0 0.0 0.00 0.01 0.00 92 1009.6
20210126052511 50 200 0.0 0.0 0.00 0.01 0.00 92 1009.8
20210126051957 50 200 0.0 0.0 0.00 0.01 0.00 92 1009.6
20210126051130 50 200 0.0 0.0 0.00 0.01 0.00 92 1009.6
20210126050625 50 200 0.0 0.0 0.00 0.01 0.00 92 1009.9
20210126050130 50 200 0.0 0.0 0.00 0.01 0.00 92 1009.9
20210126045626 50 200 0.0 0.0 0.00 0.01 0.00 92 1010.3
20210126045125 50 200 0.0 0.0 0.00 0.01 0.00 92 1010.4
20210126044625 50 200 0.0 0.0 0.00 0.01 0.00 92 1010.4
20210126044127 50 200 0.0 0.0 0.00 0.01 0.00 92 1010.5
20210126043625 50 200 0.0 0.0 0.00 0.01 0.00 92 1010.5
20210126042734 50 200 0.0 0.0 0.00 0.01 0.00 92 1010.9
20210126042232 50 200 0.0 0.0 0.00 0.01 0.00 92 1011.0
20210126041733 50 200 0.0 0.0 0.00 0.01 0.00 92 1010.9
20210126041232 50 200 0.0 0.0 0.00 0.01 0.00 92 1011.0
20210126040733 50 200 0.0 0.0 0.00 0.01 0.00 92 1010.8
20210126040232 50 200 0.0 0.0 0.00 0.01 0.00 92 1010.7
20210126035732 50 200 0.0 0.0 0.00 0.01 0.00 92 1010.8
20210126035233 50 200 0.0 0.0 0.00 0.01 0.00 92 1010.9
20210126034735 50 200 0.0 0.0 0.00 0.01 0.00 92 1011.0
20210126034235 50 200 0.0 0.0 0.00 0.01 0.00 92 1011.0
20210126033732 50 200 0.0 0.0 0.00 0.01 0.00 91 1011.2
20210126033232 50 200 0.0 0.0 0.00 0.01 0.00 91 1011.4
20210126032732 50 200 0.0 0.0 0.00 0.01 0.00 91 1011.1
20210126032234 50 200 0.0 0.0 0.00 0.01 0.00 91 1011.0
20210126031736 50 200 0.0 0.0 0.00 0.01 0.00 91 1011.0
20210126031235 50 200 0.0 0.0 0.00 0.01 0.00 91 1010.9
20210126030735 50 200 0.0 0.0 0.00 0.01 0.00 91 1011.1
20210126030232 50 200 0.0 0.0 0.00 0.01 0.00 91 1011.1
20210126025252 50 200 0.0 0.0 0.00 0.01 0.00 91 1011.0
20210126024754 50 200 0.0 0.0 0.00 0.01 0.00 91 1010.8